Bălţi City Airport

Jump to: basic info | weather | comments

Related pages: nearby airports | nearby navaids

Basic information (top)

Location: lon 47.774399, lat 27.957500
Status: medium_airport
Scheduled airline service: yes
Links: Wikipedia Mobile

Weather (top)

Current conditions for Balti International Airport 8nm (15km) WNW (rec'd 2014/10/30 12:00Z):

LUBL 301200Z AUTO 33007KT 310V010 9999 ///004 05/04 Q1023

Airport forecast for Chişinău International Airport 64nm (119km) SE (rec'd 2014/03/30 00:24Z):

TAF TAF LUKK 302320Z 3100/3112 VRB04KT CAVOK

Latest comments (top)

No comments yet for Bălţi City Airport

More... (top)

See also NOTAMs and nearby airports and navaids, or visit the Bălţi City Airport page at the main OurAirports website..